{"data":{"norad_id":67384,"epoch":"2026-09-20T13:45:02.033280Z","epoch_age_seconds":94054,"freshness":"FRESH","line1":"1 67384U 26004X   26263.57294020  .00002040  00000+0  23582-3 0  9996","line2":"2 67384  97.8028 260.2431 0001604  93.2556 266.8843 14.86652252 37449","mean_motion":14.86652252,"eccentricity":0.0001604,"inclination_deg":97.8028,"raan_deg":260.2431,"arg_perigee_deg":93.2556,"mean_anomaly_deg":266.8843,"bstar":0.00023582,"rev_number":3744,"period_min":96.861925716842,"perigee_km":607.28390443137,"apogee_km":609.52518695923,"semimajor_km":6986.5415456953,"source":"CELESTRAK","updated_at":"2026-09-21T09:00:16.596953Z"}}